Wind_Speed
2 2 2 3 2 2 3 4 4 4 4 4 3 2 2 2 3 3 3 3 2 3 4 5 7 8 8 9 9 10 10 11 12 12 12 12 12 12 12 12 13 12 13
1 1 2 2 2 2 3 4 3 3 4 4 4 3 2 2 2 3 3 3 3 3 4 5 6 7 8 8 9 10 10 11 12 12 12 12 12 13 13 13 13 13 13
1 1 2 2 2 2 3 3 3 4 4 4 4 4 3 3 3 3 3 3 3 4 4 5 6 7 7 8 9 10 10 11 12 13 13 14 13 13 13 13 14 14 14
1 1 2 2 2 2 3 4 4 4 4 4 4 4 4 3 3 3 3 3 3 3 4 5 6 7 7 8 8 9 10 11 12 13 14 15 15 15 14 14 14 15 15
1 1 1 2 2 2 3 3 4 4 4 4 4 4 4 4 4 4 4 4 4 3 4 4 5 6 6 7 8 9 9 10 10 12 13 15 15 15 14 14 15 15 15
1 2 2 2 2 2 2 3 4 4 4 4 4 4 4 4 4 4 4 4 4 4 4 4 4 5 6 7 8 8 8 9 9 9 10 12 13 15 15 15 16 16 16
2 2 3 3 2 2 2 2 3 4 4 4 4 4 4 4 4 4 4 5 5 5 5 4 4 5 6 6 8 8 8 8 8 8 8 10 12 13 14 15 16 16 17
3 3 3 3 3 3 2 2 3 3 3 4 4 4 5 4 4 5 5 5 5 6 6 5 5 5 5 6 7 7 8 8 8 8 8 10 11 13 14 16 17 17 18
4 4 4 4 4 3 3 3 2 3 3 4 4 4 5 5 5 5 6 6 6 6 6 6 6 6 5 6 6 7 8 8 9 9 9 10 12 13 15 16 17 18 19
5 5 5 5 4 3 3 3 3 3 4 4 4 4 5 5 5 5 6 6 6 7 7 7 7 7 6 6 6 7 8 9 9 10 11 11 12 13 15 16 17 19 20
5 5 5 5 5 4 4 4 4 5 5 5 5 5 5 5 5 5 6 6 6 7 7 7 7 8 8 8 8 7 8 9 10 11 12 13 14 15 16 17 18 19 20
6 6 6 6 5 5 5 5 5 5 5 5 5 5 5 5 6 6 6 7 7 8 8 8 9 8 9 9 9 9 9 9 10 11 12 13 14 16 17 18 19 21 22
7 7 6 6 6 6 6 5 5 5 5 5 5 5 6 6 6 7 7 7 8 8 9 9 9 9 10 10 11 11 12 12 12 13 13 14 16 17 18 19 21 22 23
8 7 7 7 6 6 6 6 6 6 5 6 6 6 6 6 7 7 8 8 9 10 10 11 11 11 11 12 13 13 14 15 15 16 16 17 17 18 19 20 21 22 23
9 9 8 8 8 7 7 7 7 7 7 7 7 7 7 7 8 8 9 9 10 11 11 12 12 13 14 14 15 15 15 16 17 18 19 19 20 21 21 22 23 24 24
9 9 9 8 8 8 8 8 8 8 8 8 8 8 9 9 10 10 11 11 12 12 13 14 14 15 16 16 16 17 18 18 19 20 21 22 22 23 24 25 26 26 27
10 10 10 10 9 9 9 10 10 9 9 10 10 10 11 12 12 12 12 13 14 14 15 16 16 17 17 17 18 19 20 21 21 22 23 23 24 25 26 27 28 29 29
11 11 11 11 10 11 11 11 11 11 11 12 12 12 13 13 13 14 14 15 15 16 16 17 18 18 19 20 20 21 22 23 24 24 25 26 27 27 28 29 30 31 31
13 13 13 13 12 12 12 12 12 12 13 13 14 14 14 14 15 15 16 16 17 18 19 19 20 21 22 22 23 23 24 25 26 26 27 28 29 30 31 31 32 33 34
14 14 14 14 14 13 13 13 14 14 14 15 15 15 15 16 17 17 17 18 19 20 20 21 22 23 24 25 25 26 27 27 28 29 30 31 32 33 34 35 35 36 37
14 14 14 14 14 14 14 15 15 15 15 16 16 16 17 18 18 19 19 20 21 21 22 23 24 25 26 27 28 29 29 30 31 32 33 34 35 36 37 37 38 39 39
15 15 15 14 14 15 15 16 16 16 16 17 18 18 19 19 20 20 21 22 23 23 24 25 26 27 28 29 30 31 32 32 33 34 36 37 38 38 38 39 39 40 41
15 15 16 15 16 17 17 17 17 17 18 19 19 19 19 20 21 22 23 24 24 25 26 27 28 29 30 31 32 34 35 35 37 38 38 39 40 40 40 41 42 43 43
15 16 16 16 17 18 18 18 18 18 18 19 19 20 21 22 23 24 25 26 27 28 28 29 31 32 33 34 35 36 37 38 39 40 41 41 41 42 43 44 45 45 46
16 16 16 16 16 17 18 18 18 18 19 20 21 22 23 23 24 25 26 28 29 30 31 32 33 34 36 37 38 39 39 40 41 41 42 43 43 44 45 46 46 47 47
16 16 16 16 17 17 18 18 18 19 20 21 22 23 24 25 25 27 28 30 31 32 33 34 35 36 37 39 40 41 41 42 43 43 44 45 46 46 46 46 47 48 48
Wind_Direction
308 319 328 338 346 348 352 353 357 4 358 351 336 325 319 317 313 318 313 298 276 256 248 244 247 247 246 247 248 251 251 251 249 247 246 247 247 247 246 246 246 243 238
304 338 347 346 347 353 356 350 345 350 358 357 346 328 320 319 315 315 313 300 284 266 255 251 249 249 249 251 250 253 253 254 252 249 247 248 248 249 247 247 248 244 242
301 355 359 350 345 345 350 352 352 356 358 355 350 348 343 347 338 316 307 301 293 279 274 269 263 257 257 256 253 254 257 256 254 251 250 248 247 247 248 246 249 246 246
308 345 358 358 2 1 353 355 353 356 357 357 356 357 354 349 352 340 329 321 312 301 291 280 271 264 263 259 255 256 260 256 256 255 253 251 248 246 245 246 248 249 250
288 319 340 344 352 356 350 355 358 1 6 7 6 4 359 354 351 346 344 334 324 316 309 297 281 266 265 260 266 265 266 263 265 259 257 252 247 244 245 247 249 250 253
274 303 324 317 319 333 341 349 4 8 12 13 12 4 360 356 352 351 348 336 328 320 314 309 293 275 270 266 270 270 269 270 270 266 263 254 247 246 248 250 252 252 253
265 281 310 311 313 318 329 340 356 5 9 13 14 11 7 1 354 347 341 336 328 322 316 312 303 288 278 275 276 273 269 271 269 266 262 255 251 249 251 254 257 256 256
267 277 296 305 304 301 301 319 342 351 2 8 12 11 7 2 353 346 342 340 334 328 323 317 314 306 284 284 282 279 271 270 271 269 265 260 255 253 255 257 259 260 260
264 275 288 299 299 295 296 303 317 330 342 350 355 359 358 351 345 344 344 342 340 335 329 323 319 314 305 294 287 282 275 273 272 272 270 267 265 263 262 262 263 264 264
261 272 283 289 288 287 288 295 301 306 317 327 332 339 342 341 339 337 338 338 337 338 336 330 321 316 310 298 292 286 280 275 276 278 278 276 274 272 270 268 267 266 267
260 267 277 284 281 281 283 287 291 300 309 308 311 317 325 329 331 334 334 334 332 332 331 330 325 319 313 304 296 292 286 280 278 278 279 279 278 277 275 272 271 270 269
259 267 275 280 279 281 285 288 292 299 302 302 302 303 310 315 318 321 324 325 324 325 323 323 325 321 317 312 307 300 297 291 286 284 283 280 278 276 276 275 274 273 273
260 264 270 276 279 282 285 287 291 299 299 299 305 307 307 307 310 312 313 316 317 319 319 320 319 318 315 312 310 306 299 296 292 288 287 284 283 281 279 278 276 276 277
256 260 264 269 276 280 283 283 285 289 293 297 303 306 307 307 307 309 309 310 311 313 315 314 313 310 309 306 304 303 301 299 298 298 296 294 292 289 285 284 282 281 281
256 259 261 265 273 276 277 279 284 286 287 291 294 296 300 304 307 308 307 306 307 308 309 311 310 308 308 309 305 303 301 300 299 298 297 296 294 291 289 287 286 285 284
255 259 261 267 274 275 274 279 284 285 285 287 290 291 293 297 300 299 300 302 303 304 306 306 307 307 307 306 305 304 303 302 301 298 297 296 294 292 290 288 287 286 285
254 259 262 266 269 272 275 281 282 282 284 286 288 292 295 298 298 299 302 302 301 303 305 306 306 305 304 304 304 304 304 304 303 302 301 298 296 293 291 289 287 287 285
257 261 263 267 269 272 275 279 280 281 282 285 288 293 296 298 298 299 300 302 302 303 304 305 305 305 304 304 303 303 303 303 303 303 301 300 298 296 294 290 288 287 286
258 262 265 268 270 272 272 275 277 282 282 285 288 291 294 296 298 299 301 302 302 303 303 302 302 302 303 303 302 303 303 302 302 302 301 300 299 298 296 294 292 289 288
259 262 265 267 270 271 272 273 275 278 283 287 289 289 292 295 296 298 300 302 302 302 302 302 302 302 302 302 302 302 302 301 301 301 300 300 299 297 296 295 293 291 290
260 263 265 266 267 268 271 273 276 280 283 286 289 290 292 292 293 296 299 301 301 301 301 302 302 302 302 301 301 301 301 301 301 300 299 299 298 297 296 294 293 292 291
261 264 265 265 265 268 271 274 277 280 282 286 288 289 291 292 292 295 297 299 300 300 301 302 302 302 301 301 300 300 300 299 299 298 299 299 298 298 296 295 294 293 292
263 265 265 266 268 271 273 275 276 280 283 285 287 288 290 293 294 295 297 299 300 301 302 302 302 302 301 301 301 300 300 299 298 298 298 298 298 298 297 296 295 294 293
267 268 269 269 271 273 275 277 278 280 284 285 286 288 291 293 295 297 298 300 301 302 302 301 302 302 302 302 301 301 300 300 300 299 299 299 298 298 298 297 297 295 294
268 269 269 270 274 277 277 278 279 282 285 286 289 291 293 294 295 296 299 301 302 302 302 302 303 303 303 303 302 301 301 301 300 300 299 299 299 299 299 298 297 296 295
269 269 269 271 276 279 280 280 281 283 286 287 289 290 291 293 295 297 299 300 301 302 303 303 303 303 303 303 303 303 303 302 301 301 300 301 300 300 299 298 298 297 296
Height
5887 5887 5886 5885 5884 5884 5883 5882 5880 5879 5878 5877 5876 5876 5875 5875 5874 5873 5873 5872 5871 5871 5871 5871 5872 5872 5873 5873 5874 5874 5875 5875 5876 5876 5877 5878 5878 5879 5880 5880 5880 5880 5879
5887 5886 5886 5885 5884 5883 5882 5882 5880 5879 5878 5877 5876 5875 5875 5874 5873 5873 5872 5871 5871 5870 5870 5870 5870 5870 5871 5871 5872 5872 5872 5872 5873 5873 5874 5875 5875 5876 5877 5878 5878 5879 5879
5886 5886 5885 5884 5884 5883 5882 5881 5880 5879 5878 5877 5876 5875 5874 5873 5872 5872 5871 5870 5870 5869 5869 5868 5868 5868 5869 5869 5869 5869 5869 5869 5869 5870 5871 5871 5872 5873 5874 5875 5876 5876 5877
5886 5885 5885 5884 5883 5883 5882 5881 5880 5879 5878 5876 5875 5875 5874 5873 5872 5871 5870 5869 5869 5868 5868 5867 5866 5866 5866 5866 5866 5866 5866 5866 5866 5866 5866 5867 5868 5869 5871 5872 5873 5874 5874
5885 5885 5884 5884 5883 5882 5881 5880 5879 5878 5877 5876 5875 5874 5873 5873 5872 5871 5870 5869 5868 5867 5866 5866 5865 5864 5864 5864 5864 5864 5864 5864 5863 5862 5861 5861 5862 5865 5867 5868 5870 5870 5871
5884 5884 5884 5883 5882 5882 5881 5880 5879 5878 5877 5876 5875 5874 5873 5872 5871 5870 5869 5868 5867 5866 5865 5864 5863 5863 5863 5862 5862 5862 5862 5861 5861 5859 5857 5856 5858 5861 5863 5865 5866 5867 5867
5883 5883 5883 5882 5882 5881 5880 5880 5879 5878 5877 5876 5875 5874 5873 5872 5871 5870 5869 5868 5867 5865 5864 5863 5862 5861 5861 5861 5860 5860 5859 5859 5859 5858 5856 5855 5856 5858 5860 5861 5862 5863 5864
5883 5882 5882 5882 5881 5880 5880 5879 5878 5877 5877 5876 5875 5874 5873 5873 5871 5870 5869 5867 5866 5865 5863 5862 5861 5860 5859 5859 5858 5858 5857 5857 5857 5856 5856 5855 5856 5857 5858 5858 5859 5859 5860
5882 5881 5881 5880 5880 5880 5879 5878 5878 5877 5876 5875 5874 5874 5873 5872 5871 5869 5868 5867 5866 5864 5863 5861 5860 5859 5858 5857 5857 5856 5855 5855 5855 5855 5854 5854 5854 5854 5855 5855 5855 5855 5855
5880 5880 5880 5879 5879 5878 5878 5877 5877 5876 5875 5874 5874 5873 5872 5871 5870 5869 5867 5866 5865 5864 5862 5861 5859 5858 5856 5856 5855 5854 5853 5853 5853 5853 5852 5852 5852 5852 5851 5851 5851 5851 5851
5879 5878 5878 5878 5877 5877 5877 5876 5876 5875 5874 5873 5873 5872 5871 5870 5869 5868 5866 5865 5864 5863 5861 5860 5858 5857 5855 5854 5853 5852 5851 5850 5850 5850 5849 5849 5848 5848 5848 5847 5847 5846 5846
5877 5877 5877 5876 5876 5876 5875 5875 5874 5874 5873 5872 5871 5871 5870 5869 5868 5867 5866 5864 5863 5862 5860 5859 5857 5856 5854 5852 5851 5850 5848 5848 5847 5846 5846 5845 5845 5844 5843 5842 5842 5841 5840
5875 5875 5875 5874 5874 5874 5873 5873 5873 5872 5871 5870 5870 5869 5868 5867 5866 5866 5864 5863 5862 5861 5859 5858 5856 5854 5853 5851 5850 5848 5846 5845 5844 5843 5842 5841 5840 5839 5838 5837 5836 5835 5834
5873 5873 5873 5873 5872 5872 5872 5871 5871 5870 5870 5869 5868 5867 5867 5866 5865 5864 5863 5862 5860 5859 5857 5856 5854 5852 5851 5849 5847 5846 5844 5842 5841 5840 5838 5837 5835 5834 5833 5832 5830 5829 5828
5871 5871 5870 5870 5870 5870 5870 5870 5869 5869 5868 5867 5866 5866 5865 5864 5863 5862 5861 5860 5859 5857 5855 5854 5852 5850 5848 5846 5844 5842 5841 5839 5837 5836 5834 5832 5830 5829 5827 5826 5824 5823 5821
5868 5868 5868 5868 5868 5868 5868 5867 5867 5866 5866 5865 5864 5863 5863 5862 5861 5859 5858 5857 5856 5854 5852 5851 5849 5847 5845 5843 5841 5839 5837 5835 5833 5831 5829 5827 5825 5823 5821 5819 5818 5816 5814
5866 5866 5866 5865 5865 5865 5865 5865 5864 5864 5863 5863 5862 5861 5860 5859 5858 5857 5855 5854 5852 5851 5849 5847 5845 5843 5841 5839 5837 5835 5832 5830 5828 5826 5823 5821 5819 5817 5814 5812 5810 5808 5806
5863 5863 5863 5863 5862 5862 5862 5862 5861 5861 5860 5860 5859 5858 5857 5856 5854 5853 5852 5850 5849 5847 5845 5843 5841 5839 5837 5835 5832 5830 5827 5825 5822 5820 5817 5814 5812 5809 5807 5804 5802 5799 5797
5859 5859 5859 5859 5859 5859 5859 5858 5858 5857 5857 5856 5855 5854 5853 5852 5851 5849 5848 5846 5845 5843 5841 5839 5836 5834 5832 5829 5827 5824 5822 5819 5816 5813 5810 5807 5804 5801 5798 5795 5793 5790 5787
5856 5856 5855 5855 5855 5855 5855 5855 5854 5854 5853 5853 5852 5850 5849 5848 5847 5845 5843 5842 5840 5838 5836 5834 5831 5829 5826 5823 5821 5818 5815 5812 5809 5805 5802 5799 5795 5792 5789 5786 5783 5779 5776
5851 5852 5851 5851 5851 5851 5851 5851 5850 5850 5849 5848 5848 5846 5845 5844 5842 5841 5839 5837 5835 5833 5830 5828 5825 5822 5819 5816 5814 5810 5807 5804 5800 5797 5793 5790 5786 5782 5778 5775 5771 5768 5765
5847 5847 5847 5847 5847 5847 5846 5846 5846 5845 5844 5844 5843 5842 5840 5839 5837 5835 5834 5831 5829 5827 5824 5821 5819 5815 5812 5809 5806 5802 5799 5796 5792 5789 5784 5780 5776 5772 5767 5764 5760 5756 5753
5843 5843 5843 5842 5842 5842 5841 5841 5840 5840 5839 5839 5838 5837 5835 5834 5832 5830 5828 5825 5823 5820 5817 5814 5811 5808 5805 5801 5798 5794 5790 5786 5782 5778 5774 5770 5765 5760 5756 5752 5748 5744 5740
5839 5838 5838 5838 5837 5837 5836 5835 5834 5834 5834 5833 5832 5831 5830 5828 5826 5824 5821 5819 5816 5813 5810 5807 5803 5799 5796 5792 5788 5784 5780 5776 5771 5766 5761 5758 5753 5749 5744 5739 5734 5730 5726
5834 5834 5833 5833 5832 5831 5830 5830 5829 5829 5828 5828 5827 5825 5824 5822 5819 5817 5815 5812 5809 5805 5801 5798 5794 5790 5786 5782 5777 5773 5769 5764 5760 5755 5750 5745 5741 5737 5732 5726 5721 5716 5711
5829 5829 5829 5828 5828 5827 5826 5825 5824 5824 5823 5822 5820 5819 5817 5815 5813 5810 5807 5804 5801 5797 5793 5789 5785 5781 5776 5771 5766 5762 5757 5752 5748 5743 5738 5733 5728 5723 5719 5714 5708 5702 5697